Regional Weather Roundup
Issued by NWS

Home | Current Version | Previous Version | Graphics & Text | Print | Product List | Glossary On
Versions: 1 2 3 4 5 6 7 8 9 10 11 12 13 14 15 16 17 18 19 20 21 22 23 24 25 26 27 28 29 30 31 32 33 34 35 36 37 38 39 40 41 42 43 44 45 46 47 48 49 50
000
ASUS43 KOAX 210202
RWRNE

WEATHER ROUNDUP FOR NEBRASKA
NATIONAL WEATHER SERVICE OMAHA NE
800 PM CST SAT JAN 20 2018

NOTES: SATELLITE DATA IS BEING USED TO AUGMENT CLOUD COVER ABOVE
       12000 FEET.
       "FAIR" INDICATES FEW OR NO CLOUDS BELOW 12,000 FEET WITH NO
       SIGNIFICANT WEATHER AND/OR OBSTRUCTIONS TO VISIBILITY.


NEZ001>004-019>022-054>056-210300-
NEBRASKA PANHANDLE

CITY           SKY/WX    TMP DP  RH WIND       PRES   REMARKS
SCOTTSBLUFF    CLOUDY    34  30  85 NE7       29.90R WCI  28
ALLIANCE       CLOUDY    32  31  96 NE16      29.87F WCI  21
CHADRON        CLOUDY    32  30  92 NE8       29.93F WCI  25
GORDON         CLOUDY    32  32  97 NE12G17   29.92R FOG     WCI  23
KIMBALL        CLOUDY    30  29  95 NE12      29.85F WCI  21
SIDNEY         CLOUDY    31  28  89 N14       29.87R WCI  21
$$

NEZ057>060-069>072-079>082-210300-
SOUTHWEST NEBRASKA

CITY           SKY/WX    TMP DP  RH WIND       PRES   REMARKS
NORTH PLATTE   CLOUDY    35  28  75 NE15      29.84F WCI  25
IMPERIAL       CLOUDY    33  29  85 NE14      29.82S WCI  23
LEXINGTON      CLOUDY    36  31  83 N9        29.84R WCI  29
MCCOOK         CLOUDY    35  30  82 N14       29.81S WCI  26
OGALLALA       CLOUDY    35  31  85 E6        29.86R WCI  30
$$

NEZ005>010-023>029-035>040-094-210300-
NORTH CENTRAL NEBRASKA

CITY           SKY/WX    TMP DP  RH WIND       PRES   REMARKS
VALENTINE      CLOUDY    36  33  89 N12       29.92S WCI  28
AINSWORTH      CLOUDY    33  33  99 N8        29.91S WCI  26
BROKEN BOW     CLOUDY    36  29  75 N12       29.86R WCI  28
O`NEILL        CLOUDY    33  32  95 N9        29.90S WCI  26
ORD            CLOUDY    35  30  82 N10       29.87R WCI  27
THEDFORD       CLOUDY    34  32  92 N10       29.89S WCI  26
$$

NEZ041-046>049-061>064-073>077-083>087-210300-
SOUTH CENTRAL NEBRASKA

CITY           SKY/WX    TMP DP  RH WIND       PRES   REMARKS
GRAND ISLAND   CLOUDY    32  29  88 N5        29.85R WCI  27
AURORA         CLOUDY    36  30  79 NE3       29.84S
HASTINGS       CLOUDY    31  28  89 N5        29.83S WCI  26
HEBRON         CLOUDY    39  37  93 E5        29.83S
HOLDREGE       CLOUDY    31  30  96 NE8       29.82S WCI  23
KEARNEY        CLOUDY    31  29  92 NE8       29.83S WCI  23
YORK           CLOUDY    39  37  93 CALM      29.85R
$$

NEZ011>018-030>034-042>045-210300-
NORTHEAST NEBRASKA

CITY           SKY/WX    TMP DP  RH WIND       PRES   REMARKS
NORFOLK        CLOUDY    40  30  67 N7        29.85R
ALBION         CLOUDY    37  31  78 N7        29.87R WCI  32
BLAIR          CLOUDY    41  36  82 E3        29.85R
COLUMBUS       CLOUDY    34  27  75 N3        29.87R
FREMONT        CLOUDY    37  30  77 CALM      29.86S
TEKAMAH        CLOUDY    34  27  75 CALM      29.87R
WAYNE          CLOUDY    34  32  93 N6        29.88R WCI  29
$$

NEZ050>053-065>068-078-088>093-210300-
SOUTHEAST NEBRASKA

CITY           SKY/WX    TMP DP  RH WIND       PRES   REMARKS
LINCOLN        CLOUDY    43  39  86 E3        29.87R
OMAHA EPPLEY   CLOUDY    37  33  85 N3        29.86S
BEATRICE       CLOUDY    42  41  93 E6        29.84S
FALLS CITY     CLOUDY    45  41  86 SE5       29.84S
NEBRASKA CITY  CLOUDY    42  42 100 CALM      29.85S
PLATTSMOUTH    CLOUDY    42  40  94 CALM      29.86R
$$

NEZ044-045-051>053-067-210300-
OMAHA AREA

CITY           SKY/WX    TMP DP  RH WIND       PRES   REMARKS
OMAHA EPPLEY   CLOUDY    37  33  85 N3        29.86S
BLAIR          CLOUDY    41  36  82 E3        29.85R
FREMONT        CLOUDY    37  30  77 CALM      29.86S
MILLARD        CLOUDY    43  39  85 CALM      29.86R
OFFUTT AFB     CLOUDY    40  37  89 CALM      29.85S
PLATTSMOUTH    CLOUDY    42  40  94 CALM      29.86R
WAHOO          CLOUDY    36  28  74 CALM      29.86R
$$




USA.gov is the U.S. government's official web portal to all federal, state and local government web resources and services.